Location: Newark
(42.7133°N, 87.7910°W)
Time: 22:28:51
(UTC+00:00)

Vanguard 1 - Pass Details

Date: 29 September 2019
Orbit: 653 x 3830 km, 34.3° (Epoch: 14 October)

Event Time Altitude Azimuth Distance (km) Brightness Sun altitude
Rises 09:45:21 0° 274° (W) 7,833 - -22.6°
Reaches altitude 10° 09:50:39 10° 271° (W) 6,912 - -21.7°
Exits shadow 09:56:54 23° 266° (W) 5,839 13.4 -20.6°
Maximum altitude 10:13:19 59° 200° (SSW) 3,730 12.7 -17.7°
Drops below altitude 10° 10:29:13 10° 126° (SE) 5,061 14.3 -14.9°
Sets 10:32:25 0° 122° (ESE) 5,720 14.8 -14.3°
